This demonstration page uses our WeatherBlox Daily Observations layout. Learn more.

Left ArrowRight Arrow

41.86663, -103.66717

Hourly Observations for July 13, 2020

Temp ( °F °C ) Dew Point ( °F °C ) Humidity (%) Winds ( mph kmh ) Pressure ( in mb ) Visibility ( mi km ) Precip ( " mm )
12:53 am 00:53 Clear 69 20.6 56 13.3 63 63 ESE 6 9 29.67 1005 10 16.0934 0 0
1:53 am 01:53 Clear 68 20 53 11.7 59 59 E 6 9 29.66 1005 10 16.0934 0 0
2:53 am 02:53 Clear 66 18.9 51 10.6 59 59 E 6 9 29.65 1004 10 16.0934 0 0
3:53 am 03:53 Clear 72 22.2 44 6.7 37 37 S 7 11 29.65 1004 10 16.0934 0 0
4:53 am 04:53 Clear 68 20 45 7.2 44 44 Calm 29.66 1005 10 16.0934 0 0
5:53 am 05:53 Sunny 64 17.8 48 8.9 56 56 NNW 8 13 29.7 1006 10 16.0934 0 0
6:53 am 06:53 Sunny 68 20 49 9.4 51 51 NW 6 9 29.73 1007 10 16.0934 0 0
7:53 am 07:53 Sunny 70 21.1 51 10.6 51 51 WSW 6 9 29.75 1007 10 16.0934 0 0
8:53 am 08:53 Hazy 74 23.3 46 7.8 37 37 W 13 20 29.78 1008 2 3.21868 0 0
9:00 am 09:00 Hazy 75 23.9 46 7.8 36 36 W 10 17 29.7 1006 1.75 2.816345 0 0
9:09 am 09:09 Sunny 77 25 47 8.3 35 35 WSW 10 17 29.68 1005 10 16.0934 0 0
9:53 am 09:53 Sunny 76 24.4 48 8.9 37 37 WNW 7 11 29.75 1007 10 16.0934 0 0
10:53 am 10:53 Sunny 79 26.1 48 8.9 34 34 Calm 29.74 1007 10 16.0934 0 0
11:53 am 11:53 Sunny 80 26.7 49 9.4 34 34 NE 8 13 29.73 1007 10 16.0934 0 0
12:53 pm 12:53 Sunny 82 27.8 51 10.6 34 34 ESE 9 15 29.71 1006 10 16.0934 0.001 0.001
1:53 pm 13:53 Sunny 84 28.9 57 13.9 40 40 ENE 8 13 29.72 1006 10 16.0934 0 0
2:53 pm 14:53 Sunny 87 30.6 59 15 39 39 E 10 17 29.68 1005 10 16.0934 0.01 0.254
3:53 pm 15:53 Cloudy with Light Rain 81 27.2 61 16.1 51 51 ESE 9 15 29.72 1007 10 16.0934 0.001 0.001
4:53 pm 16:53 Cloudy with Light Rain 77 25 57 13.9 50 50 SE 24 39 29.74 1007 7 11.26538 0.01 0.254
5:53 pm 17:53 Mostly Cloudy 73 22.8 60 15.6 64 64 undefined N/A 29.8 1009 10 16.0934 0.01 0.254
6:53 pm 18:53 Sunny 74 23.3 58 14.4 57 57 undefined N/A 29.7 1006 10 16.0934 0 0
7:53 pm 19:53 Sunny 73 22.8 55 12.8 53 53 SE 8 13 29.71 1006 10 16.0934 0 0
8:53 pm 20:53 Clear 65 18.3 58 14.4 78 78 ESE 7 11 29.69 1006 10 16.0934 0 0
9:53 pm 21:53 Clear 63 17.2 58 14.4 84 84 E 3 6 29.72 1007 10 16.0934 0 0
10:53 pm 22:53 Clear 62 16.7 56 13.3 80 80 E 6 9 29.74 1007 10 16.0934 0 0
11:53 pm 23:53 Clear 63 17.2 56 13.3 78 78 SE 10 17 29.75 1007 10 16.0934 0 0

Powered by AerisWeather